• Processing (Info)

  • MPEC 2023-P60 : 2023 PU

    The following Minor Planet Electronic Circular may be linked-to from your own Web pages, but must not otherwise be redistributed electronically.

    A form allowing access to any MPEC is at the bottom of this page.


    Read MPEC 2023-P59 Read MPEC 2023-P61


    M.P.E.C. 2023-P60                               Issued 2023 August 12, 04:00 UT
    
         The Minor Planet Electronic Circulars contain information on unusual
             minor planets, routine data on comets and natural satellites,
             and occasional editorial announcements.  They are published
        on behalf of Division F of the International Astronomical Union by the
              Minor Planet Center, Smithsonian Astrophysical Observatory,
                              Cambridge, MA 02138, U.S.A.
    			  
                 Prepared using the Tamkin Foundation Computer Network
    
                                  MPC@CFA.HARVARD.EDU
                URL https://www.minorplanetcenter.net/    ISSN 1523-6714
    
                                     2023 PU                                 
    
    
    Observations:
         K23P00U* C2023 08 10.40173521 50 38.091-01 33 05.79         20.0 GVEP060U68
         K23P00U  C2023 08 10.40566321 50 49.230-01 33 34.84         20.0 GVEP060U68
         K23P00U  C2023 08 10.42280021 51 37.649-01 35 40.58         19.9 GVEP060U68
         K23P00U  C2023 08 10.42672621 51 48.839-01 36 09.70         19.9 GVEP060U68
         K23P00U KC2023 08 11.06085622 22 28.72 -02 51 40.4          19.8 GXEP060L01
         K23P00U KC2023 08 11.06164022 22 30.87 -02 51 45.6          19.3 GXEP060L01
         K23P00U KC2023 08 11.06248522 22 33.10 -02 51 51.2          19.6 GXEP060L01
         K23P00U  C2023 08 11.11045922 25 12.34 -02 48 57.8                WEP060X09
         K23P00U  C2023 08 11.11745922 25 31.12 -02 49 47.0                WEP060X09
         K23P00U  C2023 08 11.36419022 36 21.50 -03 16 56.3                WEP060X09
         K23P00U  C2023 08 11.37163822 36 41.00 -03 17 42.7                WEP060X09
         K23P00U  C2023 08 11.37863722 36 59.31 -03 18 27.4                WEP060X09
         K23P00U KB2023 08 11.88096 22 59 30.37 -04 17 20.9                ZEP060106
         K23P00U KB2023 08 11.88547 22 59 41.57 -04 17 46.2                ZEP060106
         K23P00U KB2023 08 11.88969 22 59 51.92 -04 18 11.6                ZEP060106
         K23P00U KB2023 08 11.89406 23 00 02.65 -04 18 37.4                ZEP060106
         K23P00U 1C2023 08 11.94991 23 02 18.01 -04 24 17.1          20.2 VXEP060033
         K23P00U 1C2023 08 11.95042 23 02 19.26 -04 24 20.0          20.4 VXEP060033
         K23P00U 1C2023 08 11.95094 23 02 20.52 -04 24 23.3          20.3 VXEP060033
         K23P00U KC2023 08 12.00378 23 04 28.09 -04 28 51.0          19.3 GXEP060K83
         K23P00U KC2023 08 12.01067 23 04 44.45 -04 29 29.2          19.5 GXEP060K83
         K23P00U KC2023 08 12.01757 23 05 00.77 -04 30 07.8          19.6 GXEP060K83
         K23P00U KB2023 08 12.07772623 07 42.378-04 29 06.51         20.0 GXEP060Y05
         K23P00U KB2023 08 12.08816223 08 06.642-04 30 05.12         19.0 GXEP060Y05
    
    Observer details:
    033 Karl Schwarzschild Observatory, Tautenburg.  Observers S. Melnikov, C.
        Hoegner, F. Ludwig, B. Stecklum.  Measurer B. Stecklum.  1.34-m f/3
        Schmidt + CCD.
    106 Crni Vrh.  Observer H. Mikuz.  0.60-m f/3.3 reflector + CMO.
    K83 Beppe Forti Astronomical Observatory, Montelupo.  Observers M. Tombelli,
        M. Iozzi, A. Boattini, F. Cheli, A. Mazzanti, M. De Marzi, A. Squilloni,
        M. Lombardo.  Measurers M. Tombelli, F. Bernardi.  0.40-m f/8 Ritchey-
        Chretien + CCD.
    L01 Visnjan Observatory, Tican.  Observers K. Korlevic, P. Dusevic, I.
        Forkapa, L. Gelo, L. Ilisevic, I. Paleka, E. Pettarin, V. Srdic.  Measurer
        I. Paleka.  1.0-m f/2.9 reflector + CCD.
    U68 JPL SynTrack Robotic Telescope, Auberry.  Observers N. Saini, C. Zhai, R.
        Trahan, M. Zhan, M. Shao.  0.28-m Reflector + CCD.
    X09 Deep Random Survey, Rio Hurtado.  Observers A. Schnabel, D. Ruhela.
        Measurer S. Deen.  0.43-m reflector + CMOS.
    Y05 SONEAR Wykrota-CEAMIG, Serra da Piedade.  Observer C. Jacques.  0.45-m
        f/2.9 reflector + CMO.
    
    Orbital elements:
    2023 PU                                                  Earth MOID = 0.0204 AU
    Epoch 2023 Sept. 13.0 TT = JDT 2460200.5                Veres                   
    M   9.02721              (2000.0)            P               Q                  
    n   0.27143345     Peri.  178.20132     +0.74132126     +0.66801947             
    a   2.3624383      Node   139.63407     -0.61700992     +0.71630370             
    e   0.5623499      Incl.    5.73783     -0.26408626     +0.20164074             
    P   3.63           H   27.16          G   0.15           U   9                  
    Residuals in seconds of arc
    230810 U68  0.2+  0.5+    230811 X09  0.6+  0.4-    230811 033  0.3-  0.4+
    230810 U68  0.6+  0.2+    230811 X09  1.7+  0.7-    230811 033  0.0   0.4+
    230810 U68  0.9-  0.3-    230811 X09  1.6+  0.3+    230811 033  0.0   0.1+
    230810 U68  0.1+  0.8-    230811 X09  1.2+  0.1+    230812 K83  0.3-  0.4-
    230811 L01  0.0   0.3+    230811 106  0.5-  0.4-    230812 K83  0.3+  0.2-
    230811 L01  0.4+  0.4+    230811 106  0.9+  0.5+    230812 K83  0.3+  0.5-
    230811 L01  0.5-  0.5+    230811 106  0.5+  0.3-    230812 Y05  0.7+  0.1+
    230811 X09  3.1+  1.0+    230811 106  0.5+  0.8-    230812 Y05  1.1-  0.3-
    
    Ephemeris:
    2023 PU                  a,e,i = 2.36, 0.56, 6                   q = 1.0339
    Date    TT    R. A. (2000) Decl.     Delta      r    Elong.  Phase     V
    2023 07 13    16 16 24.0 +07 44 14   0.1285  1.0949   124.7    49.8    24.8
    ...
    2023 07 28    16 49 14.0 +08 15 34   0.06298 1.0482   119.8    57.2    23.3
    ...
    2023 08 05    18 20 11.7 +06 26 48   0.03087 1.0364   134.4    44.4    21.4
    ...
    2023 08 11    22 19 40.6 -02 39 38   0.02141 1.0339   160.6    19.0    19.9
    2023 08 12    23 04 12.3 -04 23 41   0.02291 1.0340   153.2    26.2    20.2
    2023 08 13    23 42 04.9 -05 44 56   0.02517 1.0343   145.9    33.3    20.6
    ...
    2023 08 19    01 37 52.9 -08 53 18   0.04661 1.0392   124.2    53.6    22.5
    ...
    2023 08 27    02 21 30.0 -09 41 23   0.08086 1.0542   120.7    55.5    23.8
    ...
    2023 09 11    02 38 25.6 -10 11 18   0.1470  1.1059   129.3    44.8    24.9
    
    M. P. C. Staff               (C) Copyright 2023 MPC           M.P.E.C. 2023-P60
    


    Read MPEC 2023-P59 Read MPEC 2023-P61


    MPEC number:

    Enter an MPEC number in one of the following forms:

    • 1997-B01 (the full form)
    • J97B01 (the packed version of the full form)
    • B01 (the abbreviated form)